SCP
-0 0 -0 -0 -0 -0 -0 -0 0 0 0 0 0 0 -0 -0 -0 -0 -0 0 -0 0
0 0 -0 -0 -0 -0 -0 -0 -0 0 0 0 0 0 0 -0 -0 -0 -0 -0 -0 0
0 0 -0 0 0 -0 -0 0 0 0 -0 0 0 0 0 -0 -0 -0 -0 -0 -0 0
0 0 0 -0 0 0 0 0 0 0 0 0 0 0 0 0 0 0 0 -0 -0 0
0 0 0 0 0 0 0 0 0 0 -0 -0 -0 0 0 0 0 0 0 0 -0 0
0 0 0 0 -0 0 0 0 0 0 0 0 -0 0 -0 0 0 0 0 0 0 0
0 0 0 0 0 0 0 0 0 0 0 0 0 0 -0 -0 -0 0 0 0 -0 0
0 0 0 0 0 0 0 0 0 0 0 0 0 0 0 0 0 0 0 0 0 0
0 0 0 0 0 0 0 0 0 0 0 0 0 0 0 0 0 0 0 0 0 0
0 0 0 0 -0 0 0 0 0 0 1 0 0 0 0 0 0 0 0 0 0 0
0 0 0 0 -0 0 0 0 0 0 0 0 0 0 0 0 0 0 0 0 0 0
0 0 0 0 0 -0 0 0 0 0 0 0 0 0 0 0 0 0 0 0 0 0
0 0 0 0 0 0 0 0 0 0 0 0 0 0 0 0 0 0 0 0 0 0
0 0 0 0 0 0 0 0 0 0 0 0 0 0 0 0 0 0 0 0 0 0
Wind_Speed_500mb
30 26 20 20 32 21 21 14 21 16 13 16 22 20 28 29 26 24 21 19 18 10
41 33 25 29 26 23 21 16 21 25 19 21 22 25 19 24 27 32 32 29 26 23
43 32 34 29 31 26 22 20 21 35 26 20 25 21 20 21 25 30 33 31 30 30
46 38 33 39 33 28 27 24 21 20 24 22 20 21 20 20 21 20 18 26 32 29
42 39 35 37 39 33 32 29 20 23 20 18 22 22 21 16 18 24 18 19 25 25
45 44 43 43 41 41 39 38 36 34 30 24 21 29 26 22 22 24 27 23 21 22
35 42 44 43 44 44 43 40 40 42 41 40 36 30 33 31 28 30 30 27 28 26
21 26 43 47 46 47 45 48 47 43 38 34 34 34 30 32 34 35 34 33 30 33
22 33 31 34 22 33 51 45 43 45 41 37 38 39 34 34 38 37 32 34 34 32
26 27 34 37 47 49 41 47 44 45 46 44 43 41 41 41 44 44 45 46 48 44
25 37 27 44 51 44 43 40 43 45 46 48 48 51 47 47 49 53 57 57 56 53
14 12 13 22 30 40 41 43 48 43 39 38 39 37 46 57 58 61 60 56 58 63
13 12 12 8 4 1 5 17 28 31 33 31 37 49 47 52 51 58 57 54 58 62
7 5 3 3 3 5 2 2 5 5 8 11 18 24 28 31 34 41 49 51 54 55
Wind_Direction_500mb
215 213 207 205 205 202 191 186 201 224 219 204 206 217 225 223 226 227 234 235 220 224
217 212 203 188 199 202 212 200 215 220 242 235 219 226 222 220 226 228 236 248 245 238
215 218 209 203 204 208 204 221 248 227 244 238 218 221 226 227 229 232 233 233 239 237
216 215 211 209 217 223 219 232 227 211 229 244 240 221 221 226 228 236 230 237 237 231
217 223 221 219 214 222 223 234 236 225 222 228 240 242 225 228 239 235 252 247 245 238
222 225 228 233 224 226 232 234 243 245 245 253 244 238 242 246 256 257 252 245 245 239
219 222 225 227 233 229 235 242 249 251 253 253 248 242 245 252 255 261 261 262 256 252
243 215 229 225 228 233 229 235 243 243 246 250 247 242 247 256 261 263 263 265 268 265
269 239 239 248 236 244 234 228 234 233 236 243 249 253 254 254 257 261 260 268 271 272
228 241 245 245 251 265 245 238 240 239 235 241 243 249 253 253 253 256 257 264 267 268
189 219 217 222 250 259 248 247 244 247 248 255 256 254 254 252 253 255 257 260 266 272
120 134 184 238 252 263 269 267 258 247 245 251 250 261 257 259 261 262 261 261 261 263
125 127 133 120 125 326 293 273 276 274 272 273 271 265 257 257 263 268 269 268 265 262
176 178 192 172 109 56 73 8 340 349 352 315 279 275 275 268 272 274 272 270 271 268
Wind_Speed_850mb
30 26 20 20 32 21 21 14 21 16 13 16 22 20 28 29 26 24 21 19 18 10
41 33 25 29 26 23 21 16 21 25 19 21 22 25 19 24 27 32 32 29 26 23
43 32 34 29 31 26 22 20 21 35 26 20 25 21 20 21 25 30 33 31 30 30
46 38 33 39 33 28 27 24 21 20 24 22 20 21 20 20 21 20 18 26 32 29
42 39 35 37 39 33 32 29 20 23 20 18 22 22 21 16 18 24 18 19 25 25
45 44 43 43 41 41 39 38 36 34 30 24 21 29 26 22 22 24 27 23 21 22
35 42 44 43 44 44 43 40 40 42 41 40 36 30 33 31 28 30 30 27 28 26
21 26 43 47 46 47 45 48 47 43 38 34 34 34 30 32 34 35 34 33 30 33
22 33 31 34 22 33 51 45 43 45 41 37 38 39 34 34 38 37 32 34 34 32
26 27 34 37 47 49 41 47 44 45 46 44 43 41 41 41 44 44 45 46 48 44
25 37 27 44 51 44 43 40 43 45 46 48 48 51 47 47 49 53 57 57 56 53
14 12 13 22 30 40 41 43 48 43 39 38 39 37 46 57 58 61 60 56 58 63
13 12 12 8 4 1 5 17 28 31 33 31 37 49 47 52 51 58 57 54 58 62
7 5 3 3 3 5 2 2 5 5 8 11 18 24 28 31 34 41 49 51 54 55
Wind_Direction_850mb
215 213 207 205 205 202 191 186 201 224 219 204 206 217 225 223 226 227 234 235 220 224
217 212 203 188 199 202 212 200 215 220 242 235 219 226 222 220 226 228 236 248 245 238
215 218 209 203 204 208 204 221 248 227 244 238 218 221 226 227 229 232 233 233 239 237
216 215 211 209 217 223 219 232 227 211 229 244 240 221 221 226 228 236 230 237 237 231
217 223 221 219 214 222 223 234 236 225 222 228 240 242 225 228 239 235 252 247 245 238
222 225 228 233 224 226 232 234 243 245 245 253 244 238 242 246 256 257 252 245 245 239
219 222 225 227 233 229 235 242 249 251 253 253 248 242 245 252 255 261 261 262 256 252
243 215 229 225 228 233 229 235 243 243 246 250 247 242 247 256 261 263 263 265 268 265
269 239 239 248 236 244 234 228 234 233 236 243 249 253 254 254 257 261 260 268 271 272
228 241 245 245 251 265 245 238 240 239 235 241 243 249 253 253 253 256 257 264 267 268
189 219 217 222 250 259 248 247 244 247 248 255 256 254 254 252 253 255 257 260 266 272
120 134 184 238 252 263 269 267 258 247 245 251 250 261 257 259 261 262 261 261 261 263
125 127 133 120 125 326 293 273 276 274 272 273 271 265 257 257 263 268 269 268 265 262
176 178 192 172 109 56 73 8 340 349 352 315 279 275 275 268 272 274 272 270 271 268